GFSNW_250_spd_231.txt.gz
Wind_Speed
28 27 27 28 30 32 37 40 45 51 55 58 62 66 67 55 51 52 51 50 47 44 42 41 41 39 37 35 33 32 32 33 30 27 25 22 23 20 25 23 26 25 37 33
26 25 25 25 28 29 34 36 40 46 56 58 65 70 63 58 55 53 53 50 49 48 46 46 45 40 37 38 36 34 35 33 31 26 25 28 28 23 25 29 27 28 34 36
24 22 21 22 25 27 30 32 39 46 54 60 62 66 65 64 57 52 52 54 49 50 49 48 46 44 41 39 40 39 35 32 30 27 27 27 27 29 27 33 31 26 33 35
21 20 19 19 22 25 28 31 39 44 47 58 62 63 64 64 58 54 52 53 52 47 47 48 48 48 45 44 43 41 37 35 31 26 24 18 14 29 33 38 36 33 35 36
17 17 18 19 20 23 26 28 31 38 44 51 59 63 60 61 59 57 54 50 50 52 49 46 45 46 45 45 46 38 38 38 30 31 29 26 25 19 33 43 43 37 41 40
14 13 15 17 19 22 24 26 27 30 39 45 52 61 58 58 59 58 56 55 52 51 53 52 50 45 42 43 45 46 42 39 36 39 36 34 30 30 31 41 45 36 38 41
12 12 13 15 15 18 21 23 24 27 32 39 47 52 57 61 59 58 59 59 60 54 50 47 47 48 48 45 44 46 48 46 44 40 39 37 41 31 30 33 40 40 37 41
11 11 12 14 15 16 19 22 23 26 31 33 39 48 52 53 60 61 61 64 63 59 57 53 48 46 45 47 51 49 47 49 46 45 42 39 42 35 31 37 45 44 43 45
11 11 10 12 13 15 18 22 21 22 26 29 34 41 45 51 53 57 62 62 61 60 61 59 55 52 53 53 52 53 54 52 50 45 43 40 41 43 27 26 35 38 40 38
10 11 11 11 12 14 17 20 20 20 24 28 33 35 41 42 46 50 57 63 65 66 64 61 60 59 58 56 55 55 53 51 49 47 45 43 43 38 28 34 31 32 32 34
12 10 11 11 12 14 16 19 20 20 24 28 31 32 35 38 40 40 43 49 56 59 60 60 59 56 55 54 52 52 49 50 53 51 47 43 49 47 48 41 36 38 39 39
14 12 11 13 12 13 15 17 20 20 23 27 28 30 31 34 35 39 41 38 45 49 53 53 53 55 54 52 48 47 48 49 50 48 45 44 46 52 49 44 41 45 45 41
17 15 13 13 13 13 13 14 17 18 20 22 22 24 27 32 31 37 41 41 42 46 52 54 53 55 52 53 49 45 45 45 46 45 44 46 50 51 53 47 42 43 44 48
20 18 16 14 14 13 12 14 16 16 17 19 21 23 27 29 32 34 36 37 41 43 46 45 47 51 52 53 50 48 46 45 44 44 46 47 48 51 49 51 54 51 51 52
23 21 18 17 16 14 13 13 16 18 17 20 20 21 22 23 28 31 33 34 35 35 36 37 38 39 41 43 44 45 45 45 44 44 43 43 45 42 41 38 35 31 25 26
26 24 21 19 17 16 15 13 14 17 19 20 19 18 16 21 26 26 25 25 24 27 27 26 24 25 28 30 31 35 37 35 32 34 31 29 31 32 28 24 20 21 23 22
30 27 24 22 19 17 16 14 13 15 17 19 18 18 19 21 22 20 20 20 21 18 19 20 24 23 24 24 24 27 24 27 28 22 23 27 24 23 22 18 17 19 22 24
36 32 28 25 22 19 17 15 15 15 16 17 20 20 17 18 20 21 21 22 20 19 21 21 20 19 18 19 22 24 25 18 17 22 23 22 20 21 19 18 20 25 27 29
40 36 32 28 25 22 18 16 15 15 16 18 19 19 18 17 18 19 19 19 20 22 21 21 21 19 17 19 26 22 18 20 22 24 22 20 20 19 20 23 27 29 30 32
45 40 36 32 28 24 20 17 16 16 16 18 20 21 19 19 19 19 20 21 21 21 22 21 18 17 21 24 20 20 21 23 22 20 22 22 22 24 26 25 27 31 32 36
51 46 41 36 32 28 23 20 17 16 16 19 22 20 19 19 19 20 21 21 20 21 21 20 20 21 21 21 20 20 22 23 23 22 22 25 25 26 26 27 30 30 33 36
59 54 47 42 37 33 27 22 19 17 18 22 21 24 25 23 22 21 21 21 21 21 21 20 20 21 22 21 20 23 25 25 25 26 27 26 26 27 29 30 32 34 35 36
47 56 54 49 43 38 32 26 21 20 24 26 25 27 27 27 27 24 23 22 23 23 22 22 24 25 25 25 25 25 25 24 25 24 25 27 29 30 32 34 37 39 40 41
33 44 52 52 48 43 38 33 28 25 24 28 29 31 31 31 31 31 30 28 26 24 26 26 26 25 25 25 26 27 27 27 27 27 30 31 33 33 35 40 42 42 42 46
33 33 43 51 53 50 45 38 33 28 28 33 34 36 36 35 34 35 33 30 27 27 26 27 27 26 27 27 30 32 30 28 29 33 35 34 36 37 37 38 39 42 45 49
37 31 36 47 53 51 48 43 39 34 31 33 38 38 37 38 38 34 33 32 32 33 34 32 33 31 32 35 36 34 31 32 36 39 40 41 43 44 46 45 45 48 49 52
41 39 33 41 51 54 50 47 43 39 36 34 35 39 45 43 40 38 41 41 40 39 38 39 39 39 40 41 38 35 36 41 43 43 45 46 47 49 50 51 52 53 55 56

GFSNW_250_spd_234.txt.gz
Wind_Speed
36 36 35 36 37 37 36 37 40 45 53 59 65 70 67 56 56 54 48 45 42 42 40 38 36 34 35 35 34 34 30 27 27 26 25 23 22 22 24 30 32 30 28 30
32 32 33 34 33 33 31 33 37 42 46 52 61 70 64 65 59 56 50 47 44 43 42 40 39 37 38 39 38 36 33 31 30 29 28 27 26 25 29 33 37 31 32 31
27 27 29 28 27 28 28 32 35 39 41 48 54 62 62 62 59 56 52 49 46 45 44 44 44 43 42 42 41 40 37 35 33 32 30 25 27 30 33 34 37 37 37 33
22 24 24 23 24 25 26 29 33 34 38 44 51 58 55 55 56 56 52 49 49 49 47 45 47 47 48 47 46 45 42 39 37 34 29 29 26 27 24 27 34 37 40 38
19 22 21 20 21 22 23 25 29 31 36 42 49 54 51 52 51 54 54 50 52 52 52 51 48 49 51 51 49 47 45 41 41 40 33 33 29 28 28 31 35 38 40 40
16 18 18 18 19 20 21 23 25 29 31 39 46 49 49 50 51 52 56 55 54 54 54 54 53 51 49 48 48 46 45 41 43 40 37 37 33 31 33 39 39 36 42 43
13 13 14 14 16 19 20 22 23 27 29 33 41 46 47 48 51 51 54 57 58 57 56 58 57 54 52 48 45 42 43 45 42 42 40 41 43 40 39 36 39 42 38 39
9 10 12 12 14 16 18 18 20 24 29 31 34 41 45 46 47 52 53 55 59 61 62 61 59 57 57 53 50 46 45 46 44 43 45 43 46 44 41 37 37 39 39 37
9 8 10 11 12 14 17 17 18 21 25 28 32 36 38 44 46 47 54 57 56 62 65 63 60 58 58 57 54 50 47 46 46 47 48 48 50 48 43 38 43 36 33 33
9 9 9 10 10 12 15 17 17 19 23 26 30 33 34 37 44 47 48 53 58 58 57 59 60 62 61 59 57 56 54 49 49 49 50 51 52 52 46 41 42 35 33 29
11 9 9 10 10 10 13 15 17 19 22 25 28 27 30 31 35 40 43 49 53 58 61 61 60 57 57 57 57 55 53 52 54 53 54 53 56 53 49 46 44 39 34 33
14 11 10 11 10 10 11 13 16 18 22 25 26 26 26 26 29 32 38 36 38 46 51 55 61 60 57 55 57 56 54 54 56 57 56 53 51 51 51 50 45 42 43 40
19 14 13 13 12 11 12 12 14 17 20 23 23 23 24 25 27 31 33 35 36 36 37 46 54 60 59 57 57 57 55 52 50 52 52 52 51 52 51 50 45 45 47 44
23 19 16 15 13 11 12 13 14 15 20 20 18 21 24 26 29 30 31 34 37 38 40 38 40 46 50 52 51 52 53 51 51 51 47 48 49 48 47 46 42 41 40 39
27 24 20 18 16 13 14 13 12 14 16 19 18 20 21 23 24 25 30 33 33 34 37 38 38 36 40 43 45 48 50 48 47 49 49 47 44 42 41 39 37 36 34 33
30 27 24 21 19 16 14 13 13 14 15 17 17 19 18 19 22 24 25 30 33 34 33 33 33 31 30 31 35 41 45 50 50 49 47 47 44 40 38 36 29 27 27 23
34 31 28 25 22 20 17 15 15 14 14 16 18 19 19 18 21 21 21 23 25 25 25 24 23 20 21 25 28 31 34 37 38 40 40 37 30 29 27 20 19 20 21 20
38 35 32 29 26 23 20 16 15 15 15 16 18 19 18 19 20 21 21 22 21 20 20 18 19 20 21 22 22 24 25 26 27 29 25 24 28 22 17 18 18 21 20 18
42 39 36 34 30 26 22 20 17 16 15 15 18 19 18 19 19 18 17 19 20 21 20 18 20 21 23 18 17 20 22 24 22 21 25 28 19 18 19 18 19 19 20 20
48 45 41 38 34 30 26 23 20 17 16 15 16 19 19 18 19 17 18 19 20 23 22 23 22 21 19 19 21 21 19 19 25 28 22 17 18 18 17 16 17 21 23 24
56 50 46 42 38 34 29 26 22 18 16 17 16 17 19 19 18 16 16 17 18 21 22 21 20 20 19 22 22 19 22 24 23 22 20 18 17 17 18 21 23 25 26 27
56 58 54 47 42 38 33 29 25 20 19 18 17 16 18 22 22 19 18 18 18 20 18 18 19 19 21 22 21 22 23 23 22 20 19 20 21 22 23 25 26 29 30 31
41 51 56 55 48 41 38 33 29 26 22 20 19 18 18 20 21 20 19 17 18 18 19 20 20 21 22 22 22 22 21 20 19 20 22 23 25 27 28 28 30 32 33 36
27 33 45 53 54 49 43 39 34 31 27 21 21 20 21 22 22 23 24 23 21 19 20 21 23 23 22 20 18 19 21 22 23 24 27 29 31 32 32 32 33 35 37 40
31 26 26 38 50 54 53 47 42 36 31 26 24 24 25 26 27 27 26 25 25 26 27 25 24 24 24 24 24 25 26 26 26 27 31 34 34 34 35 36 38 40 43 45
33 31 32 28 32 46 52 52 48 42 37 31 26 28 28 30 29 30 31 32 33 33 31 29 29 28 28 27 28 28 28 28 29 31 34 36 37 38 40 42 45 47 48 51
37 37 35 33 29 33 44 51 51 47 42 37 31 29 33 33 36 34 33 35 36 38 36 34 32 32 32 32 34 35 32 33 34 37 39 40 41 42 44 47 50 53 53 55

GFSNW_250_spd_237.txt.gz
Wind_Speed
54 54 55 53 49 44 41 40 40 42 42 44 48 57 61 59 58 55 48 48 41 38 37 40 39 37 36 34 32 31 29 29 28 26 26 25 24 24 26 29 29 30 30 32
53 50 45 41 39 38 37 39 40 40 39 41 46 51 57 61 61 58 53 51 47 43 41 40 41 40 38 37 37 36 35 34 33 30 30 29 26 27 29 31 32 33 32 31
42 37 34 33 34 35 36 36 36 35 36 39 43 48 51 52 56 60 56 53 51 48 45 44 43 42 41 40 39 38 36 35 32 33 32 32 31 30 32 34 33 33 31 29
31 31 29 29 30 32 31 31 31 31 35 38 42 43 43 46 52 58 58 57 54 52 50 49 47 44 44 43 42 41 40 40 38 36 34 34 34 34 34 33 37 34 30 28
27 27 26 25 27 27 25 27 27 28 32 35 38 38 37 40 47 55 59 58 56 55 53 53 52 48 47 46 46 46 44 42 40 37 36 36 35 39 36 34 33 33 31 32
23 23 21 21 22 21 21 22 24 26 29 33 34 33 33 37 41 46 52 56 56 58 56 56 55 54 52 51 49 48 46 45 43 41 39 36 37 40 37 38 36 32 34 36
19 18 17 17 17 17 17 20 22 24 26 29 30 30 33 37 41 45 48 52 56 59 59 57 57 57 57 54 51 49 48 47 46 44 41 37 43 43 39 40 41 38 36 37
17 16 14 12 12 13 16 16 19 23 24 26 27 27 30 36 40 45 49 50 54 58 60 59 59 60 60 57 55 53 51 48 46 45 44 42 44 45 45 41 47 45 41 39
17 14 11 9 9 10 12 14 17 19 22 23 26 26 28 31 37 42 47 52 52 58 60 61 60 62 62 59 56 55 53 51 47 44 44 41 44 45 45 41 44 41 43 40
16 12 11 8 7 8 9 11 15 17 20 22 24 25 26 28 31 37 42 47 54 57 61 63 64 63 62 59 55 55 57 52 50 48 48 47 46 48 47 44 43 43 41 43
17 13 11 9 6 6 7 9 12 16 19 21 21 22 24 27 29 32 38 44 49 56 59 60 62 63 63 61 57 56 56 54 53 54 55 53 53 50 49 48 46 48 47 44
20 16 13 9 6 6 7 8 10 14 17 20 21 20 21 23 27 30 33 34 40 46 52 57 61 60 60 63 63 61 58 57 57 57 56 56 56 54 52 50 51 51 48 45
23 19 16 13 8 6 8 8 9 11 13 17 19 19 19 22 23 27 28 29 31 33 39 47 54 57 59 59 59 63 62 60 59 59 58 57 56 54 54 51 50 46 44 41
27 23 19 17 12 8 9 9 10 11 12 12 16 19 20 21 25 24 25 28 30 31 33 35 38 45 52 56 58 61 62 61 60 59 59 59 58 55 54 46 40 38 42 47
30 26 23 20 16 12 11 9 9 9 10 11 14 19 19 19 21 23 25 28 30 32 35 36 36 36 35 35 40 50 57 60 60 59 58 59 58 55 50 44 42 42 43 42
34 30 27 24 20 16 14 11 10 10 9 9 14 18 19 18 18 20 22 24 26 30 34 33 36 35 32 33 33 33 34 40 47 51 52 52 51 46 43 40 39 39 39 37
38 34 30 27 24 20 17 14 11 11 11 10 11 15 18 18 18 18 20 23 25 27 30 30 29 29 30 31 33 36 37 39 41 44 44 44 47 46 42 38 38 37 30 30
41 38 34 30 28 24 20 17 14 12 11 11 12 13 15 18 18 18 18 20 22 24 24 24 26 27 27 30 31 26 24 26 30 31 33 35 35 31 29 32 30 25 28 23
42 40 38 34 31 27 24 20 17 16 14 13 14 14 15 16 17 17 14 15 18 20 20 22 24 25 26 26 21 17 21 24 26 28 27 24 25 26 26 21 24 24 22 21
45 43 41 38 34 31 28 25 22 19 16 15 14 13 14 16 16 16 16 16 17 18 22 24 24 22 24 23 20 22 25 24 22 21 22 23 22 18 21 23 22 22 23 22
48 46 45 42 38 34 31 30 26 23 19 18 15 14 14 14 16 16 16 16 16 18 23 25 25 24 23 21 21 24 23 19 16 18 18 17 17 21 21 21 22 23 24 23
51 49 47 45 43 39 36 34 30 27 23 21 17 15 15 15 15 15 16 17 16 16 20 24 24 24 24 23 22 22 18 15 17 17 16 17 16 16 18 19 20 21 23 25
55 56 56 53 49 45 41 39 36 31 28 24 19 16 16 16 16 16 17 20 20 17 18 19 19 22 22 21 19 17 16 17 16 16 16 17 19 20 21 21 23 25 28 29
35 36 40 46 52 55 53 47 40 36 32 28 23 18 16 17 17 17 17 18 18 19 19 18 20 21 17 15 15 15 18 19 20 21 22 22 23 23 25 26 28 30 32 34
34 30 29 32 41 48 53 53 48 41 37 33 28 22 19 18 20 18 18 19 19 21 23 24 22 19 17 18 18 19 20 21 21 21 22 24 25 28 31 32 34 36 37 39
36 32 30 25 25 35 45 51 53 49 42 37 33 27 24 22 21 21 22 23 23 23 23 24 23 23 21 21 23 25 24 25 26 26 28 29 32 35 37 38 39 41 43 45
38 36 32 28 24 21 31 43 49 52 50 44 37 34 30 27 24 25 27 27 26 25 25 26 27 27 26 27 26 27 30 31 32 33 35 37 38 39 40 42 43 45 46 48

GFSNW_250_spd_240.txt.gz
Wind_Speed
63 60 57 55 54 51 53 54 55 56 54 50 47 47 46 47 51 55 51 50 44 41 36 37 37 37 36 36 34 32 31 30 29 29 32 31 32 29 27 26 26 23 22 21
62 61 58 56 55 54 55 57 56 53 48 45 44 44 45 44 47 54 56 55 50 47 44 39 37 38 38 38 38 35 34 34 34 34 36 36 31 28 29 28 29 26 23 24
61 59 57 55 54 54 54 50 46 44 42 41 41 42 40 39 43 49 58 58 55 55 51 47 42 40 40 40 40 39 37 38 39 41 40 37 33 34 33 31 30 30 27 24
50 50 51 50 49 47 43 40 39 39 38 39 38 37 35 36 42 46 55 62 60 59 57 53 50 45 43 42 42 41 41 41 42 42 40 36 35 35 36 34 30 27 28 27
45 46 45 40 38 36 35 35 35 35 34 33 33 32 31 34 42 45 52 58 63 62 61 58 54 51 48 46 45 44 43 43 43 42 41 40 38 38 38 34 31 27 29 30
37 35 33 31 30 30 31 32 31 31 30 30 30 30 31 34 39 43 49 54 60 64 62 60 57 54 51 49 48 47 45 44 44 43 43 42 39 42 40 38 35 30 28 30
31 29 27 25 25 26 27 27 26 26 26 24 25 27 30 32 37 41 47 51 56 60 62 61 60 57 55 53 52 50 48 48 47 46 47 44 45 46 43 41 38 35 30 32
28 25 24 21 21 22 22 21 22 21 21 21 22 25 28 31 35 40 46 49 54 59 61 61 60 60 59 57 55 53 53 52 50 50 49 49 46 47 46 44 44 39 34 36
27 23 21 19 17 16 15 16 17 17 18 20 22 25 28 30 34 40 43 48 50 55 59 60 60 61 63 60 59 58 58 55 54 52 48 48 47 44 44 41 41 36 34 35
27 24 21 17 14 12 10 11 13 15 16 18 21 24 26 28 32 38 42 46 49 51 54 58 61 62 62 62 61 62 58 56 54 54 53 53 48 49 49 46 42 38 40 37
27 25 21 17 13 9 8 8 10 13 15 17 19 21 24 26 30 33 38 46 48 51 54 55 58 61 63 63 63 61 56 55 56 56 56 56 52 51 50 49 45 44 44 42
30 26 22 17 12 11 8 6 7 11 14 16 17 18 21 24 26 30 33 38 46 49 52 57 58 58 60 62 63 62 60 58 58 59 58 56 54 52 51 51 50 49 47 45
32 27 24 19 15 11 9 5 5 8 12 13 16 18 21 23 25 28 30 33 38 44 47 50 54 58 59 62 63 62 61 61 61 62 60 60 59 57 55 52 52 51 49 47
35 29 26 22 17 14 10 6 6 6 8 10 14 17 21 23 24 23 26 30 33 36 40 45 49 54 59 61 62 65 63 65 64 64 64 64 63 61 59 57 55 53 52 50
37 33 29 25 21 16 13 9 6 6 6 8 11 14 18 22 22 23 25 27 30 32 34 37 40 45 48 50 56 60 63 63 64 65 63 65 64 65 64 60 55 52 51 50
40 36 32 28 24 20 17 12 9 7 6 7 10 13 16 18 20 21 22 24 28 33 35 36 38 39 38 38 38 39 43 50 57 62 65 65 64 64 64 63 60 57 52 51
42 38 35 30 26 24 20 16 12 10 8 7 6 9 13 17 18 21 22 22 25 27 30 32 35 36 36 37 39 42 39 38 37 39 42 47 52 55 57 56 57 51 45 43
44 41 37 33 30 26 23 19 16 13 10 8 8 8 11 13 16 20 22 21 21 23 26 28 29 32 33 38 44 42 38 38 38 38 40 42 42 40 39 41 43 42 41 42
47 44 41 37 33 29 26 24 20 17 14 11 11 10 9 10 14 17 19 20 19 21 22 23 26 28 31 35 35 33 32 30 31 34 35 35 34 33 34 35 36 38 35 35
47 45 43 40 36 33 30 28 24 21 18 14 13 12 13 11 12 15 17 19 19 18 19 22 26 27 28 29 29 26 25 27 24 25 24 23 23 24 24 24 25 27 30 32
49 46 43 40 38 37 34 32 28 25 21 19 17 13 14 12 11 14 16 16 17 18 19 21 23 25 24 26 25 25 26 25 24 22 18 18 17 17 18 20 23 25 26 26
50 47 44 42 39 38 36 35 32 28 26 24 20 16 14 14 13 12 14 15 14 14 16 18 20 18 23 23 22 22 21 22 21 18 18 17 17 17 18 20 22 23 23 25
53 49 46 44 42 40 39 39 37 33 30 27 24 20 17 16 14 12 14 16 15 13 14 15 11 19 20 21 22 20 20 21 18 18 17 17 17 19 20 21 22 23 25 27
52 50 49 47 45 45 44 42 40 38 35 32 28 24 20 18 16 13 14 14 15 14 12 13 16 21 22 18 19 20 19 17 18 18 18 19 15 19 21 23 25 27 28 30
55 54 52 52 52 50 47 46 45 43 40 35 32 30 25 22 19 15 14 15 14 14 15 18 21 22 20 20 20 18 17 18 18 18 19 20 20 22 24 26 28 30 32 34
42 44 45 44 43 44 46 50 52 53 51 46 41 36 31 27 23 19 16 16 17 17 15 16 18 18 19 20 20 20 20 21 21 22 23 25 26 28 30 33 35 37 37 38
40 38 35 33 31 30 31 33 40 46 50 51 48 43 36 32 28 25 22 18 19 19 18 19 20 22 24 24 24 26 27 27 28 30 31 31 32 34 36 37 40 43 44 45

GFSNW_250_spd_246.txt.gz
Wind_Speed
72 70 70 69 68 64 63 62 58 57 56 55 51 50 47 42 41 43 43 41 42 43 44 44 45 43 42 39 38 34 34 34 33 35 33 28 28 25 23 21 16 13 15 10
76 72 68 66 62 59 59 59 59 59 58 57 54 53 50 44 45 43 44 44 44 46 49 48 49 47 45 37 40 40 40 34 35 36 31 29 30 28 27 22 18 15 14 5
75 71 65 62 60 58 56 57 58 59 61 59 57 56 53 49 46 47 47 48 48 47 49 48 50 50 41 41 45 41 40 38 36 33 35 35 32 30 30 25 21 20 17 21
69 67 65 64 63 61 60 58 53 56 59 59 60 57 55 51 49 50 50 47 47 47 49 49 50 50 42 46 40 42 41 42 40 38 38 37 35 32 32 29 27 23 26 26
72 70 68 67 68 68 67 63 61 60 60 59 61 58 55 49 49 49 44 42 47 48 42 45 51 54 45 48 42 43 42 42 44 40 39 37 35 32 33 30 33 30 34 34
66 69 68 70 70 67 66 65 63 64 62 62 60 57 48 45 46 41 45 44 42 38 49 35 33 35 49 52 45 44 43 41 37 36 37 36 37 35 38 38 38 37 39 43
45 49 53 58 62 64 63 62 61 61 58 54 48 42 32 33 37 41 40 36 36 46 40 33 31 31 30 48 43 40 40 37 35 36 36 31 39 41 40 34 37 38 44 37
41 42 41 41 40 41 42 42 41 44 44 40 38 34 36 48 42 34 32 37 37 40 42 48 45 26 15 21 39 40 49 52 50 42 39 39 40 31 31 33 35 30 31 34
42 37 36 38 37 36 36 37 38 37 34 32 32 32 36 37 33 31 30 28 33 40 37 44 52 35 21 24 29 23 37 31 28 35 43 41 37 28 24 24 39 29 20 49
44 40 39 38 37 36 35 34 33 30 28 28 29 30 30 29 24 20 10 16 25 34 36 45 64 52 26 37 48 50 32 23 25 28 31 25 31 23 34 34 45 37 32 40
43 41 39 37 36 34 32 29 28 25 25 26 27 26 24 26 24 24 27 38 31 29 36 39 43 59 57 53 53 63 57 50 52 55 55 60 41 48 37 37 27 41 46 55
37 37 37 36 34 32 30 26 24 22 22 22 24 25 23 27 36 43 34 34 25 27 36 29 29 22 39 58 66 64 59 58 53 56 58 65 58 47 48 55 41 45 66 68
35 35 36 35 34 32 29 25 22 20 17 17 19 23 23 27 33 41 44 37 33 34 37 41 23 17 34 41 37 42 44 43 48 45 50 54 62 49 58 60 65 77 68 74
34 37 38 37 35 32 28 24 21 18 14 13 16 19 21 24 28 32 34 38 39 44 50 58 41 35 26 49 47 42 41 48 63 62 65 68 70 74 61 58 63 61 64 70
38 40 39 38 34 31 28 26 23 18 14 11 12 16 18 20 24 26 31 34 36 40 48 64 66 68 47 43 57 49 54 50 33 30 53 62 66 76 73 64 63 72 74 74
42 41 41 39 36 33 30 27 23 18 14 10 7 10 14 17 20 23 26 28 32 36 40 60 69 69 61 61 66 61 43 60 59 49 54 53 52 59 70 64 66 70 70 71
45 45 44 41 39 36 32 27 24 19 15 10 7 6 9 12 15 20 24 26 28 31 36 38 45 55 70 69 69 73 80 72 69 68 67 78 73 76 80 79 71 69 64 69
48 47 46 45 41 37 32 29 24 21 16 13 9 7 5 5 10 14 18 22 25 27 30 33 37 37 48 54 74 77 85 82 84 80 78 78 78 75 70 63 59 58 51 50
50 49 49 47 43 40 34 30 26 22 18 14 11 9 6 4 4 7 12 17 20 23 25 27 31 34 38 39 44 55 66 75 79 76 74 66 60 55 54 52 49 50 47 48
52 50 50 49 47 40 38 32 28 24 21 17 14 9 5 4 6 5 6 9 14 17 20 23 24 22 24 33 36 37 40 46 50 50 51 52 51 49 47 46 44 43 39 35
53 52 52 52 49 44 40 35 30 27 24 20 17 13 11 8 8 7 6 5 8 13 14 15 16 17 22 22 26 27 30 33 36 39 44 43 42 42 42 38 36 35 32 29
58 57 54 52 50 47 41 37 34 29 25 25 21 18 14 12 9 9 7 6 7 5 7 8 3 4 15 18 21 21 21 23 26 28 29 32 31 31 28 28 32 29 25 24
57 56 55 52 49 46 42 40 37 34 30 27 24 20 19 15 13 11 9 7 8 3 10 6 5 0 11 16 17 19 20 21 22 23 25 27 27 28 27 28 26 26 20 18
58 57 55 51 48 47 45 41 38 36 33 29 26 24 22 19 15 15 13 10 9 5 9 17 17 18 12 15 35 23 23 22 21 21 22 23 23 26 26 24 24 22 23 21
58 58 55 53 51 49 48 44 41 37 34 30 30 28 26 22 20 19 17 12 11 6 5 15 23 22 22 33 26 20 23 25 23 22 26 27 27 26 24 24 28 28 28 27
57 59 56 54 51 49 46 45 41 37 35 32 31 28 27 26 26 23 21 20 17 11 11 16 25 29 28 32 32 30 26 28 29 28 26 26 26 26 25 25 30 32 33 32
53 55 56 54 51 49 48 45 44 41 36 34 32 31 30 30 29 27 25 24 20 20 20 17 21 29 36 40 38 37 35 35 29 27 27 28 29 29 30 33 34 33 33 36